South Bend, IN

3:00 PM EDT on August 24, 2016 (GMT -0400)
South Bend Regional

Weather History for KSBN - December, 2011

Change the Weather History Date:

Sunday, December 18, 2011

  Actual Average Record
Temperature  
Mean Temperature 34 °F 28 °F  
Max Temperature 41 °F 34 °F 55 °F (1957)
Min Temperature 27 °F 22 °F -7 °F (1963)
Degree Days  
Heating Degree Days 31 37  
Month to date heating degree days 549 620  
Since 1 July heating degree days 1672 1889  
Cooling Degree Days 0 0  
Month to date cooling degree days 0 0  
Year to date cooling degree days 969 773  
Moisture  
Dew Point 27 °F    
Average Humidity 74    
Maximum Humidity 92    
Minimum Humidity 55    
Precipitation  
Precipitation 0.00 in 0.08 in 1.35 in (1895)
Month to date precipitation 2.00 1.56  
Year to date precipitation 45.86 36.95  
Snow  
Snow 0.00 in 0.60 in 8.40 in (1981)
Month to date snowfall 3.9 9.1  
Since 1 July snowfall 3.9 14.3  
Snow Depth 0.00 in    
Sea Level Pressure  
Sea Level Pressure 30.16 in    
Wind  
Wind Speed 9 mph (SSW)    
Max Wind Speed 17 mph    
Max Gust Speed 26 mph    
Visibility 8 miles    
Events      
T = Trace of Precipitation, MM = Missing Value Source: NWS Daily Summary

Daily Weather History Graph

Daily Weather History Graph

Search for Another Location

Airport or City:

Trip Planner

Search our weather history database for the weather conditions in past years. The results will help you decide how hot, cold, wet, or windy it might be!

Date:

Astronomy

Dec. 18, 2011 Rise Set
Actual Time 8:07 AM EST 5:16 PM EST
Civil Twilight 7:35 AM EST 5:48 PM EST
Nautical Twilight 7:00 AM EST 6:23 PM EST
Astronomical Twilight 6:26 AM EST 6:56 PM EST
Moon 1:03 AM EST (12/18) 12:45 PM EST (12/18)
Length of Visible Light 10h 12m
Length of Day
9h 09m
Last Quarter, 42% of the Moon is Illuminated
Dec 18
Last Quarter
Dec 24
New
Jan 1
First Quarter
Jan 9
Full
Jan 16
Last Quarter

Hourly Weather History & Observations

Time (EST) Temp. Windchill Dew Point Humidity Pressure Visibility Wind Dir Wind Speed Gust Speed Precip Events Conditions
12:54 AM 30.9 °F 22.8 °F 27.0 °F 85% 30.19 in 7.0 mi WSW 9.2 mph - N/A   Overcast
1:37 AM 30.2 °F 21.3 °F 26.6 °F 86% 30.16 in 7.0 mi WSW 10.4 mph - N/A   Overcast
1:54 AM 30.9 °F 22.8 °F 27.0 °F 85% 30.19 in 7.0 mi WSW 9.2 mph - N/A   Overcast
2:54 AM 30.9 °F 24.3 °F 27.0 °F 85% 30.21 in 7.0 mi SW 6.9 mph - N/A   Overcast
3:54 AM 30.9 °F 26.2 °F 27.0 °F 85% 30.21 in 7.0 mi SW 4.6 mph - N/A   Overcast
4:29 AM 30.2 °F 24.3 °F 26.6 °F 86% 30.17 in 7.0 mi SW 5.8 mph - N/A   Overcast
4:54 AM 30.9 °F 22.2 °F 27.0 °F 85% 30.22 in 7.0 mi SW 10.4 mph - N/A   Overcast
5:54 AM 30.2 °F - 26.6 °F 86% 30.18 in 7.0 mi Calm Calm - N/A   Overcast
6:54 AM 30.2 °F 25.4 °F 26.6 °F 86% 30.19 in 6.0 mi SSW 4.6 mph - N/A   Overcast
7:54 AM 28.0 °F 22.8 °F 25.0 °F 88% 30.24 in 6.0 mi SSW 4.6 mph - N/A   Mostly Cloudy
8:26 AM 26.6 °F 17.5 °F 24.8 °F 93% 30.22 in 5.0 mi SSW 9.2 mph - N/A   Scattered Clouds
8:54 AM 27.0 °F 18.7 °F 24.1 °F 89% 30.25 in 4.0 mi SSW 8.1 mph - N/A   Mostly Cloudy
9:41 AM 28.4 °F 20.4 °F 24.8 °F 86% 30.22 in 4.0 mi SSW 8.1 mph - N/A   Scattered Clouds
9:54 AM 28.0 °F 19.3 °F 25.0 °F 88% 30.25 in 5.0 mi SSW 9.2 mph - N/A   Clear
10:54 AM 30.9 °F 21.7 °F 26.1 °F 82% 30.25 in 6.0 mi SSW 11.5 mph - N/A   Haze
11:54 AM 34.0 °F 26.0 °F 27.0 °F 75% 30.25 in 6.0 mi SSW 10.4 mph - N/A   Haze
12:54 PM 36.0 °F 28.5 °F 28.0 °F 73% 30.22 in 8.0 mi South 10.4 mph - N/A   Clear
1:54 PM 37.4 °F 30.8 °F 28.4 °F 70% 30.16 in 10.0 mi South 9.2 mph - N/A   Clear
2:54 PM 39.9 °F 32.9 °F 27.0 °F 60% 30.14 in 10.0 mi South 11.5 mph - N/A   Clear
3:54 PM 41.0 °F 33.9 °F 26.6 °F 57% 30.10 in 10.0 mi South 12.7 mph - N/A   Clear
4:54 PM 39.9 °F 33.9 °F 27.0 °F 60% 30.12 in 10.0 mi South 9.2 mph - N/A   Clear
5:54 PM 36.0 °F 30.3 °F 27.0 °F 70% 30.10 in 10.0 mi South 6.9 mph - N/A   Clear
6:54 PM 36.0 °F 29.6 °F 28.0 °F 73% 30.08 in 10.0 mi South 8.1 mph - N/A   Clear
7:54 PM 37.0 °F 30.4 °F 30.0 °F 76% 30.06 in 10.0 mi South 9.2 mph - N/A   Clear
8:54 PM 37.9 °F 29.6 °F 30.9 °F 76% 30.04 in 10.0 mi South 13.8 mph - N/A   Clear
9:54 PM 39.0 °F 31.4 °F 30.9 °F 73% 30.01 in 10.0 mi SSW 12.7 mph - N/A   Clear
10:54 PM 39.9 °F 32.5 °F 30.9 °F 70% 30.00 in 10.0 mi SSW 12.7 mph 23.0 mph N/A   Clear
11:54 PM 39.9 °F 31.8 °F 32.0 °F 73% 29.99 in 10.0 mi SSW 15.0 mph 23.0 mph N/A   Clear